owner,sensor,date,latitude,longitude,vertical_datum,mass_concentration_of_oxygen_in_sea_water,qcFlag 
DISL,ioos:station:DISL:BSCA:1,2013-01-01T00:00:00Z,30.3288,-87.8293,1.795,10.18,1111122 
DISL,ioos:station:DISL:BSCA:1,2013-01-01T00:30:00Z,30.3288,-87.8293,1.808,10.0,1111122 
DISL,ioos:station:DISL:BSCA:1,2013-01-01T01:00:00Z,30.3288,-87.8293,1.818,10.16,1111122 
DISL,ioos:station:DISL:BSCA:1,2013-01-01T01:30:00Z,30.3288,-87.8293,1.853,10.02,1111122 
DISL,ioos:station:DISL:BSCA:1,2013-01-01T02:00:00Z,30.3288,-87.8293,1.877,9.94,1111122 
DISL,ioos:station:DISL:BSCA:1,2013-01-01T02:30:00Z,30.3288,-87.8293,1.921,10.17,1111122 
DISL,ioos:station:DISL:BSCA:1,2013-01-01T03:00:00Z,30.3288,-87.8293,1.938,10.11,1111122 
DISL,ioos:station:DISL:BSCA:1,2013-01-01T03:30:00Z,30.3288,-87.8293,1.969,10.07,1111122 
DISL,ioos:station:DISL:BSCA:1,2013-01-01T04:00:00Z,30.3288,-87.8293,1.982,9.84,1111122 
DISL,ioos:station:DISL:BSCA:1,2013-01-01T04:30:00Z,30.3288,-87.8293,1.975,9.87,1111122 
DISL,ioos:station:DISL:BSCA:1,2013-01-01T05:00:00Z,30.3288,-87.8293,1.997,9.53,1111122 
DISL,ioos:station:DISL:BSCA:1,2013-01-01T05:30:00Z,30.3288,-87.8293,1.991,9.23,1111122 
DISL,ioos:station:DISL:BSCA:1,2013-01-01T06:00:00Z,30.3288,-87.8293,1.989,8.74,1111122 
DISL,ioos:station:DISL:BSCA:1,2013-01-01T06:30:00Z,30.3288,-87.8293,2.001,9.12,1111122 
DISL,ioos:station:DISL:BSCA:1,2013-01-01T07:00:00Z,30.3288,-87.8293,1.985,9.33,1111122 
DISL,ioos:station:DISL:BSCA:1,2013-01-01T07:30:00Z,30.3288,-87.8293,1.996,9.09,1111122 
DISL,ioos:station:DISL:BSCA:1,2013-01-01T08:00:00Z,30.3288,-87.8293,1.984,9.05,1111122 
DISL,ioos:station:DISL:BSCA:1,2013-01-01T08:30:00Z,30.3288,-87.8293,1.979,9.09,1111122 
DISL,ioos:station:DISL:BSCA:1,2013-01-01T09:00:00Z,30.3288,-87.8293,1.948,9.26,1111122 
DISL,ioos:station:DISL:BSCA:1,2013-01-01T09:30:00Z,30.3288,-87.8293,1.93,9.57,1111122 
DISL,ioos:station:DISL:BSCA:1,2013-01-01T10:00:00Z,30.3288,-87.8293,1.907,9.84,1111122 
DISL,ioos:station:DISL:BSCA:1,2013-01-01T10:30:00Z,30.3288,-87.8293,1.867,9.84,1111122 
DISL,ioos:station:DISL:BSCA:1,2013-01-01T11:00:00Z,30.3288,-87.8293,1.851,9.8,1111122 
DISL,ioos:station:DISL:BSCA:1,2013-01-01T11:30:00Z,30.3288,-87.8293,1.82,10.35,1111122 
DISL,ioos:station:DISL:BSCA:1,2013-01-01T12:00:00Z,30.3288,-87.8293,1.801,10.32,1111122 
DISL,ioos:station:DISL:BSCA:1,2013-01-01T12:30:00Z,30.3288,-87.8293,1.781,10.77,1111122 
DISL,ioos:station:DISL:BSCA:1,2013-01-01T13:00:00Z,30.3288,-87.8293,1.77,10.67,1111122 
DISL,ioos:station:DISL:BSCA:1,2013-01-01T13:30:00Z,30.3288,-87.8293,1.753,10.46,1111122 
DISL,ioos:station:DISL:BSCA:1,2013-01-01T14:00:00Z,30.3288,-87.8293,1.745,10.54,1111122 
DISL,ioos:station:DISL:BSCA:1,2013-01-01T14:30:00Z,30.3288,-87.8293,1.737,10.6,1111122 
DISL,ioos:station:DISL:BSCA:1,2013-01-01T15:00:00Z,30.3288,-87.8293,1.718,10.67,1111122 
DISL,ioos:station:DISL:BSCA:1,2013-01-01T15:30:00Z,30.3288,-87.8293,1.704,10.66,1111122 
DISL,ioos:station:DISL:BSCA:1,2013-01-01T16:00:00Z,30.3288,-87.8293,1.698,10.63,1111122 
DISL,ioos:station:DISL:BSCA:1,2013-01-01T16:30:00Z,30.3288,-87.8293,1.696,10.76,1111122 
DISL,ioos:station:DISL:BSCA:1,2013-01-01T17:00:00Z,30.3288,-87.8293,1.714,10.85,1111122 
DISL,ioos:station:DISL:BSCA:1,2013-01-01T17:30:00Z,30.3288,-87.8293,1.717,10.83,1111122 
DISL,ioos:station:DISL:BSCA:1,2013-01-01T18:00:00Z,30.3288,-87.8293,1.745,10.92,1111122 
DISL,ioos:station:DISL:BSCA:1,2013-01-01T18:30:00Z,30.3288,-87.8293,1.754,11.0,1111122 
DISL,ioos:station:DISL:BSCA:1,2013-01-01T19:00:00Z,30.3288,-87.8293,1.774,10.97,1111122 
DISL,ioos:station:DISL:BSCA:1,2013-01-01T19:30:00Z,30.3288,-87.8293,1.778,11.11,1111122 
DISL,ioos:station:DISL:BSCA:1,2013-01-01T20:00:00Z,30.3288,-87.8293,1.802,11.14,1111122 
DISL,ioos:station:DISL:BSCA:1,2013-01-01T20:30:00Z,30.3288,-87.8293,1.828,11.16,1111122 
DISL,ioos:station:DISL:BSCA:1,2013-01-01T21:00:00Z,30.3288,-87.8293,1.841,11.13,1111122 
DISL,ioos:station:DISL:BSCA:1,2013-01-01T21:30:00Z,30.3288,-87.8293,1.87,11.21,1111122 
DISL,ioos:station:DISL:BSCA:1,2013-01-01T22:00:00Z,30.3288,-87.8293,1.876,11.17,1111122 
DISL,ioos:station:DISL:BSCA:1,2013-01-01T22:30:00Z,30.3288,-87.8293,1.893,11.26,1111122 
DISL,ioos:station:DISL:BSCA:1,2013-01-01T23:00:00Z,30.3288,-87.8293,1.896,11.25,1111122 
DISL,ioos:station:DISL:BSCA:1,2013-01-01T23:30:00Z,30.3288,-87.8293,1.903,11.16,1111122 
DISL,ioos:station:DISL:BSCA:1,2013-01-02T00:00:00Z,30.3288,-87.8293,1.916,11.09,1111122 
DISL,ioos:station:DISL:BSCA:1,2013-01-02T00:30:00Z,30.3288,-87.8293,1.916,11.06,1111122 
DISL,ioos:station:DISL:BSCA:1,2013-01-02T01:00:00Z,30.3288,-87.8293,1.927,11.04,1111122 
DISL,ioos:station:DISL:BSCA:1,2013-01-02T01:30:00Z,30.3288,-87.8293,1.92,10.94,1111122 
DISL,ioos:station:DISL:BSCA:1,2013-01-02T02:00:00Z,30.3288,-87.8293,1.939,10.95,1111122 
DISL,ioos:station:DISL:BSCA:1,2013-01-02T02:30:00Z,30.3288,-87.8293,1.934,10.82,1111122 
DISL,ioos:station:DISL:BSCA:1,2013-01-02T03:00:00Z,30.3288,-87.8293,1.954,10.83,1111122 
DISL,ioos:station:DISL:BSCA:1,2013-01-02T03:30:00Z,30.3288,-87.8293,1.98,10.82,1111122 
DISL,ioos:station:DISL:BSCA:1,2013-01-02T04:00:00Z,30.3288,-87.8293,1.99,10.9,1111122 
DISL,ioos:station:DISL:BSCA:1,2013-01-02T04:30:00Z,30.3288,-87.8293,2.011,10.83,1111122 
DISL,ioos:station:DISL:BSCA:1,2013-01-02T05:00:00Z,30.3288,-87.8293,2.013,10.82,1111122 
DISL,ioos:station:DISL:BSCA:1,2013-01-02T05:30:00Z,30.3288,-87.8293,2.023,10.9,1111122 
DISL,ioos:station:DISL:BSCA:1,2013-01-02T06:00:00Z,30.3288,-87.8293,2.05,10.67,1111122 
DISL,ioos:station:DISL:BSCA:1,2013-01-02T06:30:00Z,30.3288,-87.8293,2.0,10.62,1111122 
DISL,ioos:station:DISL:BSCA:1,2013-01-02T07:00:00Z,30.3288,-87.8293,1.943,10.64,1111122 
DISL,ioos:station:DISL:BSCA:1,2013-01-02T07:30:00Z,30.3288,-87.8293,1.882,10.6,1111122 
DISL,ioos:station:DISL:BSCA:1,2013-01-02T08:00:00Z,30.3288,-87.8293,1.817,10.49,1111122 
DISL,ioos:station:DISL:BSCA:1,2013-01-02T08:30:00Z,30.3288,-87.8293,1.8,10.4,1111122 
DISL,ioos:station:DISL:BSCA:1,2013-01-02T09:00:00Z,30.3288,-87.8293,1.783,10.34,1111122 
DISL,ioos:station:DISL:BSCA:1,2013-01-02T09:30:00Z,30.3288,-87.8293,1.802,10.34,1111122 
DISL,ioos:station:DISL:BSCA:1,2013-01-02T10:00:00Z,30.3288,-87.8293,1.812,10.27,1111122 
DISL,ioos:station:DISL:BSCA:1,2013-01-02T10:30:00Z,30.3288,-87.8293,1.806,10.28,1111122 
DISL,ioos:station:DISL:BSCA:1,2013-01-02T11:00:00Z,30.3288,-87.8293,1.787,10.22,1111122 
DISL,ioos:station:DISL:BSCA:1,2013-01-02T11:30:00Z,30.3288,-87.8293,1.74,10.19,1111122 
DISL,ioos:station:DISL:BSCA:1,2013-01-02T12:00:00Z,30.3288,-87.8293,1.713,10.18,1111122 
DISL,ioos:station:DISL:BSCA:1,2013-01-02T12:30:00Z,30.3288,-87.8293,1.658,10.16,1111122 
DISL,ioos:station:DISL:BSCA:1,2013-01-02T13:00:00Z,30.3288,-87.8293,1.632,10.14,1111122 
DISL,ioos:station:DISL:BSCA:1,2013-01-02T13:30:00Z,30.3288,-87.8293,1.594,10.04,1111122 
DISL,ioos:station:DISL:BSCA:1,2013-01-02T14:00:00Z,30.3288,-87.8293,1.596,9.99,1111122 
DISL,ioos:station:DISL:BSCA:1,2013-01-02T14:30:00Z,30.3288,-87.8293,1.6,10.01,1111122 
DISL,ioos:station:DISL:BSCA:1,2013-01-02T15:00:00Z,30.3288,-87.8293,1.615,10.01,1111122 
DISL,ioos:station:DISL:BSCA:1,2013-01-02T15:30:00Z,30.3288,-87.8293,1.613,9.97,1111122 
DISL,ioos:station:DISL:BSCA:1,2013-01-02T16:00:00Z,30.3288,-87.8293,1.626,9.85,1111122 
DISL,ioos:station:DISL:BSCA:1,2013-01-02T16:30:00Z,30.3288,-87.8293,1.629,9.85,1111122 
DISL,ioos:station:DISL:BSCA:1,2013-01-02T17:00:00Z,30.3288,-87.8293,1.631,9.76,1111122 
DISL,ioos:station:DISL:BSCA:1,2013-01-02T17:30:00Z,30.3288,-87.8293,1.645,9.66,1111122 
DISL,ioos:station:DISL:BSCA:1,2013-01-02T18:00:00Z,30.3288,-87.8293,1.647,9.64,1111122 
DISL,ioos:station:DISL:BSCA:1,2013-01-02T18:30:00Z,30.3288,-87.8293,1.681,9.79,1111122 
DISL,ioos:station:DISL:BSCA:1,2013-01-02T19:00:00Z,30.3288,-87.8293,1.691,10.13,1111122 
DISL,ioos:station:DISL:BSCA:1,2013-01-02T19:30:00Z,30.3288,-87.8293,1.703,10.3,1111122 
DISL,ioos:station:DISL:BSCA:1,2013-01-02T20:00:00Z,30.3288,-87.8293,1.712,10.49,1111122 
DISL,ioos:station:DISL:BSCA:1,2013-01-02T20:30:00Z,30.3288,-87.8293,1.72,10.46,1111122 
DISL,ioos:station:DISL:BSCA:1,2013-01-02T21:00:00Z,30.3288,-87.8293,1.737,10.49,1111122 
DISL,ioos:station:DISL:BSCA:1,2013-01-02T21:30:00Z,30.3288,-87.8293,1.765,10.51,1111122 
DISL,ioos:station:DISL:BSCA:1,2013-01-02T22:00:00Z,30.3288,-87.8293,1.775,10.48,1111122 
DISL,ioos:station:DISL:BSCA:1,2013-01-02T22:30:00Z,30.3288,-87.8293,1.79,10.38,1111122 
DISL,ioos:station:DISL:BSCA:1,2013-01-02T23:00:00Z,30.3288,-87.8293,1.813,10.25,1111122 
DISL,ioos:station:DISL:BSCA:1,2013-01-02T23:30:00Z,30.3288,-87.8293,1.821,10.12,1111122 
DISL,ioos:station:DISL:BSCA:1,2013-01-03T00:00:00Z,30.3288,-87.8293,1.829,10.08,1111122 
DISL,ioos:station:DISL:BSCA:1,2013-01-03T00:30:00Z,30.3288,-87.8293,1.824,10.04,1111122 
DISL,ioos:station:DISL:BSCA:1,2013-01-03T01:00:00Z,30.3288,-87.8293,1.827,10.0,1111122 
DISL,ioos:station:DISL:BSCA:1,2013-01-03T01:30:00Z,30.3288,-87.8293,1.795,9.97,1111122 
DISL,ioos:station:DISL:BSCA:1,2013-01-03T02:00:00Z,30.3288,-87.8293,1.786,10.2,1111122 
DISL,ioos:station:DISL:BSCA:1,2013-01-03T02:30:00Z,30.3288,-87.8293,1.775,10.14,1111122 
DISL,ioos:station:DISL:BSCA:1,2013-01-03T03:00:00Z,30.3288,-87.8293,1.779,10.03,1111122 
DISL,ioos:station:DISL:BSCA:1,2013-01-03T03:30:00Z,30.3288,-87.8293,1.785,9.97,1111122 
DISL,ioos:station:DISL:BSCA:1,2013-01-03T04:00:00Z,30.3288,-87.8293,1.783,10.0,1111122 
DISL,ioos:station:DISL:BSCA:1,2013-01-03T04:30:00Z,30.3288,-87.8293,1.789,10.15,1111122 
DISL,ioos:station:DISL:BSCA:1,2013-01-03T05:00:00Z,30.3288,-87.8293,1.786,10.24,1111122 
DISL,ioos:station:DISL:BSCA:1,2013-01-03T05:30:00Z,30.3288,-87.8293,1.766,10.3,1111122 
DISL,ioos:station:DISL:BSCA:1,2013-01-03T06:00:00Z,30.3288,-87.8293,1.783,10.26,1111122 
DISL,ioos:station:DISL:BSCA:1,2013-01-03T06:30:00Z,30.3288,-87.8293,1.786,10.28,1111122 
DISL,ioos:station:DISL:BSCA:1,2013-01-03T07:00:00Z,30.3288,-87.8293,1.787,10.2,1111122 
DISL,ioos:station:DISL:BSCA:1,2013-01-03T07:30:00Z,30.3288,-87.8293,1.77,9.97,1111122 
DISL,ioos:station:DISL:BSCA:1,2013-01-03T08:00:00Z,30.3288,-87.8293,1.761,9.74,1111122 
DISL,ioos:station:DISL:BSCA:1,2013-01-03T08:30:00Z,30.3288,-87.8293,1.728,9.33,1111122 
DISL,ioos:station:DISL:BSCA:1,2013-01-03T09:00:00Z,30.3288,-87.8293,1.714,9.56,1111122 
DISL,ioos:station:DISL:BSCA:1,2013-01-03T09:30:00Z,30.3288,-87.8293,1.704,9.56,1111122 
DISL,ioos:station:DISL:BSCA:1,2013-01-03T10:00:00Z,30.3288,-87.8293,1.677,9.52,1111122 
DISL,ioos:station:DISL:BSCA:1,2013-01-03T10:30:00Z,30.3288,-87.8293,1.696,9.48,1111122 
DISL,ioos:station:DISL:BSCA:1,2013-01-03T11:00:00Z,30.3288,-87.8293,1.698,9.5,1111122 
DISL,ioos:station:DISL:BSCA:1,2013-01-03T11:30:00Z,30.3288,-87.8293,1.705,9.5,1111122 
DISL,ioos:station:DISL:BSCA:1,2013-01-03T12:00:00Z,30.3288,-87.8293,1.685,9.6,1111122 
DISL,ioos:station:DISL:BSCA:1,2013-01-03T12:30:00Z,30.3288,-87.8293,1.651,9.59,1111122 
DISL,ioos:station:DISL:BSCA:1,2013-01-03T13:00:00Z,30.3288,-87.8293,1.605,9.68,1111122 
DISL,ioos:station:DISL:BSCA:1,2013-01-03T13:30:00Z,30.3288,-87.8293,1.601,9.65,1111122 
DISL,ioos:station:DISL:BSCA:1,2013-01-03T14:00:00Z,30.3288,-87.8293,1.617,9.58,1111122 
DISL,ioos:station:DISL:BSCA:1,2013-01-03T14:30:00Z,30.3288,-87.8293,1.612,9.5,1111122 
DISL,ioos:station:DISL:BSCA:1,2013-01-03T15:00:00Z,30.3288,-87.8293,1.632,9.43,1111122 
DISL,ioos:station:DISL:BSCA:1,2013-01-03T15:30:00Z,30.3288,-87.8293,1.607,9.68,1111122 
DISL,ioos:station:DISL:BSCA:1,2013-01-03T16:00:00Z,30.3288,-87.8293,1.568,9.61,1111122 
DISL,ioos:station:DISL:BSCA:1,2013-01-03T16:30:00Z,30.3288,-87.8293,1.582,9.52,1111122 
DISL,ioos:station:DISL:BSCA:1,2013-01-03T17:00:00Z,30.3288,-87.8293,1.555,10.04,1111122 
DISL,ioos:station:DISL:BSCA:1,2013-01-03T17:30:00Z,30.3288,-87.8293,1.557,9.96,1111122 
DISL,ioos:station:DISL:BSCA:1,2013-01-03T18:00:00Z,30.3288,-87.8293,1.565,10.06,1111122 
DISL,ioos:station:DISL:BSCA:1,2013-01-03T18:30:00Z,30.3288,-87.8293,1.568,9.99,1111122 
DISL,ioos:station:DISL:BSCA:1,2013-01-03T19:00:00Z,30.3288,-87.8293,1.586,9.97,1111122 
DISL,ioos:station:DISL:BSCA:1,2013-01-03T19:30:00Z,30.3288,-87.8293,1.608,10.24,1111122 
DISL,ioos:station:DISL:BSCA:1,2013-01-03T20:00:00Z,30.3288,-87.8293,1.644,10.56,1111122 
DISL,ioos:station:DISL:BSCA:1,2013-01-03T20:30:00Z,30.3288,-87.8293,1.666,10.63,1111122 
DISL,ioos:station:DISL:BSCA:1,2013-01-03T21:00:00Z,30.3288,-87.8293,1.683,10.68,1111122 
DISL,ioos:station:DISL:BSCA:1,2013-01-03T21:30:00Z,30.3288,-87.8293,1.691,10.67,1111122 
DISL,ioos:station:DISL:BSCA:1,2013-01-03T22:00:00Z,30.3288,-87.8293,1.701,10.68,1111122 
DISL,ioos:station:DISL:BSCA:1,2013-01-03T22:30:00Z,30.3288,-87.8293,1.693,10.5,1111122 
DISL,ioos:station:DISL:BSCA:1,2013-01-03T23:00:00Z,30.3288,-87.8293,1.693,10.58,1111122 
DISL,ioos:station:DISL:BSCA:1,2013-01-03T23:30:00Z,30.3288,-87.8293,1.667,10.61,1111122 
DISL,ioos:station:DISL:BSCA:1,2013-01-04T00:00:00Z,30.3288,-87.8293,1.677,10.54,1111122 
DISL,ioos:station:DISL:BSCA:1,2013-01-04T00:30:00Z,30.3288,-87.8293,1.684,10.59,1111122 
DISL,ioos:station:DISL:BSCA:1,2013-01-04T01:00:00Z,30.3288,-87.8293,1.679,10.46,1111122 
DISL,ioos:station:DISL:BSCA:1,2013-01-04T01:30:00Z,30.3288,-87.8293,1.697,10.23,1111122 
DISL,ioos:station:DISL:BSCA:1,2013-01-04T02:00:00Z,30.3288,-87.8293,1.684,10.26,1111122 
DISL,ioos:station:DISL:BSCA:1,2013-01-04T02:30:00Z,30.3288,-87.8293,1.694,10.27,1111122 
DISL,ioos:station:DISL:BSCA:1,2013-01-04T03:00:00Z,30.3288,-87.8293,1.678,10.34,1111122 
DISL,ioos:station:DISL:BSCA:1,2013-01-04T03:30:00Z,30.3288,-87.8293,1.663,10.08,1111122 
DISL,ioos:station:DISL:BSCA:1,2013-01-04T04:00:00Z,30.3288,-87.8293,1.635,9.89,1111122 
DISL,ioos:station:DISL:BSCA:1,2013-01-04T04:30:00Z,30.3288,-87.8293,1.628,10.15,1111122 
DISL,ioos:station:DISL:BSCA:1,2013-01-04T05:00:00Z,30.3288,-87.8293,1.635,9.31,1111122 
DISL,ioos:station:DISL:BSCA:1,2013-01-04T05:30:00Z,30.3288,-87.8293,1.642,8.97,1111122 
DISL,ioos:station:DISL:BSCA:1,2013-01-04T06:00:00Z,30.3288,-87.8293,1.658,9.02,1111122 
DISL,ioos:station:DISL:BSCA:1,2013-01-04T06:30:00Z,30.3288,-87.8293,1.65,9.31,1111122 
DISL,ioos:station:DISL:BSCA:1,2013-01-04T07:00:00Z,30.3288,-87.8293,1.652,9.18,1111122 
DISL,ioos:station:DISL:BSCA:1,2013-01-04T07:30:00Z,30.3288,-87.8293,1.655,9.25,1111122 
DISL,ioos:station:DISL:BSCA:1,2013-01-04T08:00:00Z,30.3288,-87.8293,1.636,9.21,1111122 
DISL,ioos:station:DISL:BSCA:1,2013-01-04T08:30:00Z,30.3288,-87.8293,1.63,9.19,1111122 
DISL,ioos:station:DISL:BSCA:1,2013-01-04T09:00:00Z,30.3288,-87.8293,1.623,9.2,1111122 
DISL,ioos:station:DISL:BSCA:1,2013-01-04T09:30:00Z,30.3288,-87.8293,1.604,9.15,1111122 
DISL,ioos:station:DISL:BSCA:1,2013-01-04T10:00:00Z,30.3288,-87.8293,1.611,9.08,1111122 
DISL,ioos:station:DISL:BSCA:1,2013-01-04T10:30:00Z,30.3288,-87.8293,1.602,9.0,1111122 
DISL,ioos:station:DISL:BSCA:1,2013-01-04T11:00:00Z,30.3288,-87.8293,1.597,8.85,1111122 
DISL,ioos:station:DISL:BSCA:1,2013-01-04T11:30:00Z,30.3288,-87.8293,1.607,8.76,1111122 
DISL,ioos:station:DISL:BSCA:1,2013-01-04T12:00:00Z,30.3288,-87.8293,1.594,8.71,1111122 
DISL,ioos:station:DISL:BSCA:1,2013-01-04T12:30:00Z,30.3288,-87.8293,1.573,8.7,1111122 
DISL,ioos:station:DISL:BSCA:1,2013-01-04T13:00:00Z,30.3288,-87.8293,1.559,8.62,1111122 
DISL,ioos:station:DISL:BSCA:1,2013-01-04T13:30:00Z,30.3288,-87.8293,1.535,8.48,1111122 
DISL,ioos:station:DISL:BSCA:1,2013-01-04T14:00:00Z,30.3288,-87.8293,1.515,8.37,1111122 
DISL,ioos:station:DISL:BSCA:1,2013-01-04T14:30:00Z,30.3288,-87.8293,1.536,7.65,1111122 
DISL,ioos:station:DISL:BSCA:1,2013-01-04T15:00:00Z,30.3288,-87.8293,1.557,9.78,1111122 
DISL,ioos:station:DISL:BSCA:1,2013-01-04T15:30:00Z,30.3288,-87.8293,1.6,8.02,1111122 
DISL,ioos:station:DISL:BSCA:1,2013-01-04T16:00:00Z,30.3288,-87.8293,1.611,8.4,1111122 
DISL,ioos:station:DISL:BSCA:1,2013-01-04T16:30:00Z,30.3288,-87.8293,1.608,7.92,1111122 
DISL,ioos:station:DISL:BSCA:1,2013-01-04T17:00:00Z,30.3288,-87.8293,1.621,9.83,1111122 
DISL,ioos:station:DISL:BSCA:1,2013-01-04T17:30:00Z,30.3288,-87.8293,1.625,8.68,1111122 
DISL,ioos:station:DISL:BSCA:1,2013-01-04T18:00:00Z,30.3288,-87.8293,1.647,8.71,1111122 
DISL,ioos:station:DISL:BSCA:1,2013-01-04T18:30:00Z,30.3288,-87.8293,1.669,8.21,1111122 
DISL,ioos:station:DISL:BSCA:1,2013-01-04T19:00:00Z,30.3288,-87.8293,1.691,8.16,1111122 
DISL,ioos:station:DISL:BSCA:1,2013-01-04T19:30:00Z,30.3288,-87.8293,1.713,8.46,1111122 
DISL,ioos:station:DISL:BSCA:1,2013-01-04T20:00:00Z,30.3288,-87.8293,1.733,9.11,1111122 
DISL,ioos:station:DISL:BSCA:1,2013-01-04T20:30:00Z,30.3288,-87.8293,1.753,9.18,1111122 
DISL,ioos:station:DISL:BSCA:1,2013-01-04T21:00:00Z,30.3288,-87.8293,1.767,9.26,1111122 
DISL,ioos:station:DISL:BSCA:1,2013-01-04T21:30:00Z,30.3288,-87.8293,1.778,9.67,1111122 
DISL,ioos:station:DISL:BSCA:1,2013-01-04T22:00:00Z,30.3288,-87.8293,1.803,9.7,1111122 
DISL,ioos:station:DISL:BSCA:1,2013-01-04T22:30:00Z,30.3288,-87.8293,1.804,9.58,1111122 
DISL,ioos:station:DISL:BSCA:1,2013-01-04T23:00:00Z,30.3288,-87.8293,1.811,9.0,1111122 
DISL,ioos:station:DISL:BSCA:1,2013-01-04T23:30:00Z,30.3288,-87.8293,1.815,8.85,1111122 
DISL,ioos:station:DISL:BSCA:1,2013-01-05T00:00:00Z,30.3288,-87.8293,1.809,8.75,1111122 
DISL,ioos:station:DISL:BSCA:1,2013-01-05T00:30:00Z,30.3288,-87.8293,1.808,8.32,1111122 
DISL,ioos:station:DISL:BSCA:1,2013-01-05T01:00:00Z,30.3288,-87.8293,1.799,8.87,1111122 
DISL,ioos:station:DISL:BSCA:1,2013-01-05T01:30:00Z,30.3288,-87.8293,1.785,9.62,1111122 
DISL,ioos:station:DISL:BSCA:1,2013-01-05T02:00:00Z,30.3288,-87.8293,1.768,9.75,1111122 
DISL,ioos:station:DISL:BSCA:1,2013-01-05T02:30:00Z,30.3288,-87.8293,1.752,9.52,1111122 
DISL,ioos:station:DISL:BSCA:1,2013-01-05T03:00:00Z,30.3288,-87.8293,1.738,10.37,1111122 
DISL,ioos:station:DISL:BSCA:1,2013-01-05T03:30:00Z,30.3288,-87.8293,1.718,10.35,1111122 
DISL,ioos:station:DISL:BSCA:1,2013-01-05T04:00:00Z,30.3288,-87.8293,1.708,10.32,1111122 
DISL,ioos:station:DISL:BSCA:1,2013-01-05T04:30:00Z,30.3288,-87.8293,1.683,10.33,1111122 
DISL,ioos:station:DISL:BSCA:1,2013-01-05T05:00:00Z,30.3288,-87.8293,1.669,10.34,1111122 
DISL,ioos:station:DISL:BSCA:1,2013-01-05T05:30:00Z,30.3288,-87.8293,1.642,10.24,1111122 
DISL,ioos:station:DISL:BSCA:1,2013-01-05T06:00:00Z,30.3288,-87.8293,1.627,10.12,1111122 
DISL,ioos:station:DISL:BSCA:1,2013-01-05T06:30:00Z,30.3288,-87.8293,1.607,10.08,1111122 
DISL,ioos:station:DISL:BSCA:1,2013-01-05T07:00:00Z,30.3288,-87.8293,1.586,10.12,1111122 
DISL,ioos:station:DISL:BSCA:1,2013-01-05T07:30:00Z,30.3288,-87.8293,1.572,10.04,1111122 
DISL,ioos:station:DISL:BSCA:1,2013-01-05T08:00:00Z,30.3288,-87.8293,1.57,9.72,1111122 
DISL,ioos:station:DISL:BSCA:1,2013-01-05T08:30:00Z,30.3288,-87.8293,1.555,9.49,1111122 
DISL,ioos:station:DISL:BSCA:1,2013-01-05T09:00:00Z,30.3288,-87.8293,1.553,9.65,1111122 
DISL,ioos:station:DISL:BSCA:1,2013-01-05T09:30:00Z,30.3288,-87.8293,1.549,8.93,1111122 
DISL,ioos:station:DISL:BSCA:1,2013-01-05T10:00:00Z,30.3288,-87.8293,1.55,8.84,1111122 
DISL,ioos:station:DISL:BSCA:1,2013-01-05T10:30:00Z,30.3288,-87.8293,1.533,8.31,1111122 
DISL,ioos:station:DISL:BSCA:1,2013-01-05T11:00:00Z,30.3288,-87.8293,1.52,8.43,1111122 
DISL,ioos:station:DISL:BSCA:1,2013-01-05T11:30:00Z,30.3288,-87.8293,1.511,9.11,1111122 
DISL,ioos:station:DISL:BSCA:1,2013-01-05T12:00:00Z,30.3288,-87.8293,1.52,8.56,1111122 
DISL,ioos:station:DISL:BSCA:1,2013-01-05T12:30:00Z,30.3288,-87.8293,1.521,7.95,1111122 
DISL,ioos:station:DISL:BSCA:1,2013-01-05T13:00:00Z,30.3288,-87.8293,1.529,10.39,1111122 
DISL,ioos:station:DISL:BSCA:1,2013-01-05T13:30:00Z,30.3288,-87.8293,1.524,10.61,1111122 
DISL,ioos:station:DISL:BSCA:1,2013-01-05T14:00:00Z,30.3288,-87.8293,1.539,10.65,1111122 
DISL,ioos:station:DISL:BSCA:1,2013-01-05T14:30:00Z,30.3288,-87.8293,1.536,7.5,1111122 
DISL,ioos:station:DISL:BSCA:1,2013-01-05T15:00:00Z,30.3288,-87.8293,1.541,8.24,1111122 
DISL,ioos:station:DISL:BSCA:1,2013-01-05T15:30:00Z,30.3288,-87.8293,1.556,7.55,1111122 
DISL,ioos:station:DISL:BSCA:1,2013-01-05T16:00:00Z,30.3288,-87.8293,1.581,7.87,1111122 
DISL,ioos:station:DISL:BSCA:1,2013-01-05T16:30:00Z,30.3288,-87.8293,1.609,8.1,1111122 
DISL,ioos:station:DISL:BSCA:1,2013-01-05T17:00:00Z,30.3288,-87.8293,1.62,7.6,1111122 
DISL,ioos:station:DISL:BSCA:1,2013-01-05T17:30:00Z,30.3288,-87.8293,1.645,7.97,1111122 
DISL,ioos:station:DISL:BSCA:1,2013-01-05T18:00:00Z,30.3288,-87.8293,1.668,8.22,1111122 
DISL,ioos:station:DISL:BSCA:1,2013-01-05T18:30:00Z,30.3288,-87.8293,1.696,8.06,1111122 
DISL,ioos:station:DISL:BSCA:1,2013-01-05T19:00:00Z,30.3288,-87.8293,1.784,11.01,1111122 
DISL,ioos:station:DISL:BSCA:1,2013-01-05T19:30:00Z,30.3288,-87.8293,1.799,11.32,1111122 
DISL,ioos:station:DISL:BSCA:1,2013-01-05T20:00:00Z,30.3288,-87.8293,1.833,9.31,1111122 
DISL,ioos:station:DISL:BSCA:1,2013-01-05T20:30:00Z,30.3288,-87.8293,1.854,11.35,1111122 
DISL,ioos:station:DISL:BSCA:1,2013-01-05T21:00:00Z,30.3288,-87.8293,1.889,11.69,1111122 
DISL,ioos:station:DISL:BSCA:1,2013-01-05T21:30:00Z,30.3288,-87.8293,1.914,10.56,1111122 
DISL,ioos:station:DISL:BSCA:1,2013-01-05T22:00:00Z,30.3288,-87.8293,1.919,10.59,1111122 
DISL,ioos:station:DISL:BSCA:1,2013-01-05T22:30:00Z,30.3288,-87.8293,1.94,10.87,1111122 
DISL,ioos:station:DISL:BSCA:1,2013-01-05T23:00:00Z,30.3288,-87.8293,1.924,10.53,1111122 
DISL,ioos:station:DISL:BSCA:1,2013-01-05T23:30:00Z,30.3288,-87.8293,1.93,10.7,1111122 
DISL,ioos:station:DISL:BSCA:1,2013-01-06T00:00:00Z,30.3288,-87.8293,1.904,11.58,1111122 
DISL,ioos:station:DISL:BSCA:1,2013-01-06T00:30:00Z,30.3288,-87.8293,1.896,10.86,1111122 
DISL,ioos:station:DISL:BSCA:1,2013-01-06T01:00:00Z,30.3288,-87.8293,1.891,11.59,1111122 
DISL,ioos:station:DISL:BSCA:1,2013-01-06T01:30:00Z,30.3288,-87.8293,1.867,11.47,1111122 
DISL,ioos:station:DISL:BSCA:1,2013-01-06T02:00:00Z,30.3288,-87.8293,1.831,11.72,1111122 
DISL,ioos:station:DISL:BSCA:1,2013-01-06T02:30:00Z,30.3288,-87.8293,1.821,11.04,1111122 
DISL,ioos:station:DISL:BSCA:1,2013-01-06T03:00:00Z,30.3288,-87.8293,1.808,12.01,1111122 
DISL,ioos:station:DISL:BSCA:1,2013-01-06T03:30:00Z,30.3288,-87.8293,1.79,12.11,1111122 
DISL,ioos:station:DISL:BSCA:1,2013-01-06T04:00:00Z,30.3288,-87.8293,1.79,11.12,1111122 
DISL,ioos:station:DISL:BSCA:1,2013-01-06T04:30:00Z,30.3288,-87.8293,1.777,8.32,1111122 
DISL,ioos:station:DISL:BSCA:1,2013-01-06T05:00:00Z,30.3288,-87.8293,1.748,11.55,1111122 
DISL,ioos:station:DISL:BSCA:1,2013-01-06T05:30:00Z,30.3288,-87.8293,1.741,11.48,1111122 
DISL,ioos:station:DISL:BSCA:1,2013-01-06T06:00:00Z,30.3288,-87.8293,1.72,11.64,1111122 
DISL,ioos:station:DISL:BSCA:1,2013-01-06T06:30:00Z,30.3288,-87.8293,1.712,8.81,1111122 
DISL,ioos:station:DISL:BSCA:1,2013-01-06T07:00:00Z,30.3288,-87.8293,1.703,11.39,1111122 
DISL,ioos:station:DISL:BSCA:1,2013-01-06T07:30:00Z,30.3288,-87.8293,1.684,8.73,1111122 
DISL,ioos:station:DISL:BSCA:1,2013-01-06T08:00:00Z,30.3288,-87.8293,1.667,10.73,1111122 
DISL,ioos:station:DISL:BSCA:1,2013-01-06T08:30:00Z,30.3288,-87.8293,1.66,11.32,1111122 
DISL,ioos:station:DISL:BSCA:1,2013-01-06T09:00:00Z,30.3288,-87.8293,1.653,11.62,1111122 
DISL,ioos:station:DISL:BSCA:1,2013-01-06T09:30:00Z,30.3288,-87.8293,1.658,11.62,1111122 
DISL,ioos:station:DISL:BSCA:1,2013-01-06T10:00:00Z,30.3288,-87.8293,1.662,11.51,1111122 
DISL,ioos:station:DISL:BSCA:1,2013-01-06T10:30:00Z,30.3288,-87.8293,1.654,11.36,1111122 
DISL,ioos:station:DISL:BSCA:1,2013-01-06T11:00:00Z,30.3288,-87.8293,1.661,11.49,1111122 
DISL,ioos:station:DISL:BSCA:1,2013-01-06T11:30:00Z,30.3288,-87.8293,1.638,11.46,1111122 
DISL,ioos:station:DISL:BSCA:1,2013-01-06T12:00:00Z,30.3288,-87.8293,1.62,11.31,1111122 
DISL,ioos:station:DISL:BSCA:1,2013-01-06T12:30:00Z,30.3288,-87.8293,1.618,11.31,1111122 
DISL,ioos:station:DISL:BSCA:1,2013-01-06T13:00:00Z,30.3288,-87.8293,1.611,11.36,1111122 
DISL,ioos:station:DISL:BSCA:1,2013-01-06T13:30:00Z,30.3288,-87.8293,1.628,11.15,1111122 
DISL,ioos:station:DISL:BSCA:1,2013-01-06T14:00:00Z,30.3288,-87.8293,1.639,7.21,1111122 
DISL,ioos:station:DISL:BSCA:1,2013-01-06T14:30:00Z,30.3288,-87.8293,1.649,7.9,1111122 